EW6492 Weather Reports


time (UTC)temp
F
wind
direction
speed
knots
gust
knots
rain 1hr
in
rain 24hr
in
rain mn
in
humidity
%
barometer
mb
20260508230002 69 242 0.9 7.8 0.00 0.00 0.00 45 958.4
20260508224501 69 170 1.7 7.0 0.00 0.00 0.00 43 958.5
20260508223002 70 206 1.7 7.0 0.00 0.00 0.00 43 958.4
20260508221601 70 236 0.9 7.0 0.00 0.00 0.00 43 958.3
20260508220059 70 246 1.7 7.8 0.00 0.00 0.00 42 958.4
20260508214559 70 186 0.0 5.2 0.00 0.00 0.00 43 958.3
20260508213058 70 236 0.9 7.8 0.00 0.00 0.00 41 958.4
20260508211556 70 292 0.9 5.2 0.00 0.00 0.00 40 958.6
20260508210054 70 217 0.9 4.3 0.00 0.00 0.00 41 959.0
20260508204553 70 288 0.0 4.3 0.00 0.00 0.00 41 959.1
20260508203059 70 205 0.9 5.2 0.00 0.00 0.00 41 959.4
20260508201559 70 217 1.7 6.1 0.00 0.00 0.00 40 959.5
20260508200049 70 259 0.9 4.3 0.00 0.00 0.00 39 959.7
20260508194548 71 238 0.9 11.3 0.00 0.00 0.00 38 959.8
20260508193046 72 300 1.7 8.7 0.00 0.00 0.00 37 959.8
20260508191545 74 355 0.9 7.0 0.00 0.00 0.00 37 960.0
20260508190041 73 327 0.0 5.2 0.00 0.00 0.00 40 960.2
20260508184542 72 235 3.5 11.3 0.00 0.00 0.00 37 960.5
20260508183040 72 261 0.9 8.7 0.00 0.00 0.00 40 960.8
20260508181544 72 101 0.9 7.8 0.00 0.00 0.00 39 961.0
20260508180033 71 5 0.9 7.0 0.00 0.00 0.00 38 961.2
20260508174536 70 257 1.7 10.4 0.00 0.00 0.00 39 961.5
20260508173032 72 181 2.6 7.8 0.00 0.00 0.00 38 961.7
20260508171527 71 242 1.7 7.0 0.00 0.00 0.00 41 962.0
20260508170023 71 264 0.0 4.3 0.00 0.00 0.00 43 962.4
20260508164520 70 244 0.0 6.1 0.00 0.00 0.00 45 962.6
20260508163019 69 248 1.7 7.0 0.00 0.00 0.00 46 962.9
20260508161514 69 252 1.7 7.0 0.00 0.00 0.00 44 963.1
20260508160011 68 319 0.0 12.2 0.00 0.00 0.00 45 963.2
20260508154509 67 231 1.7 9.6 0.00 0.00 0.00 46 963.5
20260508153005 67 322 1.7 7.0 0.00 0.00 0.00 47 963.6
20260508151504 66 213 2.6 8.7 0.00 0.00 0.00 47 963.7
20260508150100 65 216 0.0 7.8 0.00 0.00 0.00 48 963.9
20260508144557 64 119 1.7 8.7 0.00 0.00 0.00 48 964.0
20260508143059 63 232 0.9 8.7 0.00 0.00 0.00 49 964.1
20260508141612 62 239 2.6 10.4 0.00 0.00 0.00 49 964.3
20260508140048 61 245 1.7 7.8 0.00 0.00 0.00 51 964.4
20260508134555 60 337 0.9 6.1 0.00 0.00 0.00 58 964.6
20260508133039 57 146 0.0 2.6 0.00 0.00 0.00 67 964.7
20260508131536 54 137 0.0 2.6 0.00 0.00 0.00 72 964.7
20260508130032 52 131 0.9 2.6 0.00 0.00 0.00 73 964.6
20260508124527 50 128 0.0 2.6 0.00 0.00 0.00 78 964.7
20260508123035 49 134 0.9 4.3 0.00 0.00 0.00 81 964.7
20260508121526 47 165 0.9 2.6 0.00 0.00 0.00 85 964.6
20260508120022 46 227 0.0 0.0 0.00 0.00 0.00 86 964.7
20260508114521 46 227 0.0 0.9 0.00 0.00 0.00 91 964.6
20260508113025 44 227 0.0 0.0 0.00 0.00 0.00 90 964.4
20260508111519 44 225 0.0 0.0 0.00 0.00 0.00 92 964.4
20260508110018 44 224 0.0 0.0 0.00 0.00 0.00 92 964.2
20260508104521 43 224 0.0 0.0 0.00 0.00 0.00 92 964.1
20260508103017 43 224 0.0 0.0 0.00 0.00 0.00 92 964.1
20260508101520 43 224 0.0 0.0 0.00 0.00 0.00 92 964.0
20260508100017 43 224 0.0 0.0 0.00 0.00 0.00 91 964.1
20260508094515 43 224 0.0 0.0 0.00 0.00 0.00 91 964.0
20260508093017 42 224 0.0 0.0 0.00 0.00 0.00 90 964.0
20260508091514 43 224 0.0 1.7 0.00 0.00 0.00 88 964.1
20260508090022 44 224 0.0 1.7 0.00 0.00 0.00 89 964.0
20260508084511 43 224 0.0 0.9 0.00 0.00 0.00 89 963.9
20260508083009 43 224 0.0 0.0 0.00 0.00 0.00 88 963.9
20260508081509 44 224 0.0 0.0 0.00 0.00 0.00 88 963.8
20260508080007 44 224 0.0 0.0 0.00 0.00 0.00 87 963.8
20260508074506 44 224 0.0 0.0 0.00 0.00 0.00 87 963.8
20260508073005 44 224 0.0 0.0 0.00 0.00 0.00 88 963.8
20260508071506 44 224 0.0 0.0 0.00 0.00 0.00 88 963.8
20260508070101 45 224 0.0 0.0 0.00 0.00 0.00 85 963.8
20260508064558 46 224 0.0 0.9 0.00 0.00 0.00 85 964.1
20260508063055 46 224 0.0 0.0 0.00 0.00 0.00 84 964.3
20260508061553 47 224 0.0 0.9 0.00 0.00 0.00 82 964.4
20260508060050 47 224 0.0 0.9 0.00 0.00 0.00 81 964.5
20260508054549 47 224 0.0 0.9 0.00 0.00 0.00 77 964.4
20260508053048 48 224 0.0 0.0 0.00 0.00 0.00 75 964.5
20260508051545 48 224 0.0 0.9 0.00 0.00 0.00 75 964.3
20260508050045 48 224 0.0 0.0 0.00 0.00 0.00 75 964.2
20260508044542 48 224 0.0 0.9 0.00 0.00 0.00 72 964.3
20260508043044 49 224 0.0 1.7 0.00 0.00 0.00 70 964.2
20260508041538 49 290 0.0 1.7 0.00 0.00 0.00 69 964.2
20260508040035 49 290 0.0 0.9 0.00 0.00 0.00 68 964.0
20260508034534 50 290 0.0 0.0 0.00 0.00 0.00 66 964.2
20260508033035 50 290 0.0 0.9 0.00 0.00 0.00 65 964.2
20260508031534 51 290 0.0 0.9 0.00 0.00 0.00 64 964.2
20260508030037 51 290 0.0 1.7 0.00 0.00 0.00 64 964.1
20260508024537 51 290 0.0 0.9 0.00 0.00 0.00 63 964.1
20260508023032 52 290 0.0 0.9 0.00 0.00 0.00 62 964.0
20260508021541 53 290 0.0 0.9 0.00 0.00 0.00 57 963.9
20260508020032 53 290 0.0 0.0 0.00 0.00 0.00 52 964.0
20260508014532 53 290 0.0 0.9 0.00 0.00 0.00 52 964.0
20260508013039 54 290 0.0 0.0 0.00 0.00 0.00 49 963.9
20260508011533 55 290 0.0 0.9 0.00 0.00 0.00 47 963.8
20260508010033 56 290 0.0 0.9 0.00 0.00 0.00 47 963.8
20260508004537 57 290 0.0 0.9 0.00 0.00 0.00 45 963.7
20260508003029 58 300 0.0 1.7 0.00 0.00 0.00 44 963.6
20260508001528 58 301 0.0 2.6 0.00 0.00 0.00 42 963.4
20260508000028 59 298 0.0 0.9 0.00 0.00 0.00 42 963.4
20260507234529 59 290 0.0 2.6 0.00 0.00 0.00 42 963.3
20260507233035 60 292 0.0 2.6 0.00 0.00 0.00 38 963.3
20260507231527 60 294 0.0 2.6 0.00 0.00 0.00 38 963.2